EW6504 Weather Reports


Display with metric or nautical units.
time (UTC)temp
F
wind
direction
speed
MPH
gust
MPH
rain 1hr
in
rain 24hr
in
rain mn
in
humidity
%
barometer
mb
20260508200037 75 313 10.0 18.0 0.00 0.00 0.00 30 1008.4
20260508195509 75 300 10.0 18.0 0.00 0.00 0.00 30 1008.4
20260508195008 74 327 7.0 13.0 0.00 0.00 0.00 29 1008.4
20260508194526 74 300 4.0 13.0 0.00 0.00 0.00 30 1008.5
20260508194014 74 5 7.0 17.0 0.00 0.00 0.00 31 1008.5
20260508193508 74 360 11.0 17.0 0.00 0.00 0.00 29 1008.5
20260508193025 74 315 3.0 15.0 0.00 0.00 0.00 28 1008.6
20260508192515 74 254 1.0 14.0 0.00 0.00 0.00 27 1008.8
20260508192012 74 311 4.0 15.0 0.00 0.00 0.00 28 1008.8
20260508191520 74 245 8.0 15.0 0.00 0.00 0.00 29 1008.9
20260508191006 74 304 6.0 17.0 0.00 0.00 0.00 29 1008.9
20260508190513 74 249 8.0 17.0 0.00 0.00 0.00 28 1008.9
20260508190025 74 315 7.0 15.0 0.00 0.00 0.00 28 1009.1
20260508185509 74 313 7.0 20.0 0.00 0.00 0.00 28 1009.0
20260508185010 73 344 12.0 20.0 0.00 0.00 0.00 27 1009.0
20260508184528 73 240 6.0 18.0 0.00 0.00 0.00 29 1009.0
20260508184011 73 273 9.0 17.0 0.00 0.00 0.00 29 1009.1
20260508183508 73 30 11.0 17.0 0.00 0.00 0.00 29 1009.1
20260508183028 73 336 8.0 15.0 0.00 0.00 0.00 29 1009.3
20260508182511 73 315 4.0 13.0 0.00 0.00 0.00 31 1009.4
20260508182009 72 312 4.0 14.0 0.00 0.00 0.00 30 1009.4
20260508181521 73 219 5.0 14.0 0.00 0.00 0.00 29 1009.5
20260508181014 72 273 6.0 16.0 0.00 0.00 0.00 32 1009.5
20260508180509 72 11 6.0 16.0 0.00 0.00 0.00 30 1009.5
20260508180022 72 285 3.0 14.0 0.00 0.00 0.00 32 1009.6
20260508175511 71 282 4.0 12.0 0.00 0.00 0.00 32 1009.6
20260508175010 71 268 7.0 12.0 0.00 0.00 0.00 31 1009.7
20260508174527 72 235 3.0 13.0 0.00 0.00 0.00 32 1009.7
20260508174013 72 299 5.0 14.0 0.00 0.00 0.00 32 1009.8
20260508173511 72 320 7.0 14.0 0.00 0.00 0.00 31 1009.9
20260508173018 71 276 7.0 14.0 0.00 0.00 0.00 32 1009.9
20260508172506 71 317 1.0 11.0 0.00 0.00 0.00 32 1010.0
20260508172005 71 286 5.0 10.0 0.00 0.00 0.00 31 1010.0
20260508171531 70 294 2.0 11.0 0.00 0.00 0.00 32 1010.1
20260508171010 71 304 2.0 13.0 0.00 0.00 0.00 31 1010.1
20260508170505 71 18 5.0 13.0 0.00 0.00 0.00 33 1010.1
20260508170027 71 319 6.0 11.0 0.00 0.00 0.00 32 1010.1
20260508165507 70 308 2.0 14.0 0.00 0.00 0.00 35 1010.1
20260508165007 69 305 3.0 14.0 0.00 0.00 0.00 32 1010.2
20260508164525 69 331 3.0 13.0 0.00 0.00 0.00 33 1010.3
20260508164009 70 331 8.0 13.0 0.00 0.00 0.00 32 1010.3
20260508163512 70 323 7.0 16.0 0.00 0.00 0.00 32 1010.4
20260508163027 70 312 7.0 16.0 0.00 0.00 0.00 33 1010.3
20260508162510 69 338 5.0 10.0 0.00 0.00 0.00 35 1010.4
20260508162008 69 342 1.0 9.0 0.00 0.00 0.00 34 1010.3
20260508161530 69 355 3.0 9.0 0.00 0.00 0.00 34 1010.4
20260508161007 68 360 1.0 12.0 0.00 0.00 0.00 34 1010.3
20260508160505 68 348 1.0 12.0 0.00 0.00 0.00 34 1010.5
20260508160021 68 360 5.0 11.0 0.00 0.00 0.00 34 1010.4
20260508155506 68 38 1.0 5.0 0.00 0.00 0.00 34 1010.3
20260508155011 68 44 1.0 6.0 0.00 0.00 0.00 33 1010.4
20260508154524 68 53 3.0 8.0 0.00 0.00 0.00 34 1010.3
20260508154012 68 72 1.0 8.0 0.00 0.00 0.00 34 1010.3
20260508153509 68 80 2.0 8.0 0.00 0.00 0.00 33 1010.2
20260508153025 69 104 0.0 6.0 0.00 0.00 0.00 33 1010.2
20260508152512 68 115 1.0 3.0 0.00 0.00 0.00 31 1010.2
20260508152009 68 121 0.0 2.0 0.00 0.00 0.00 33 1010.2
20260508151528 67 121 0.0 2.0 0.00 0.00 0.00 34 1010.2
20260508151012 67 124 0.0 2.0 0.00 0.00 0.00 32 1010.3
20260508150508 66 123 0.0 2.0 0.00 0.00 0.00 33 1010.3
20260508150023 66 123 0.0 3.0 0.00 0.00 0.00 34 1010.3
20260508145504 66 123 1.0 3.0 0.00 0.00 0.00 33 1010.4
20260508145004 65 123 0.0 4.0 0.00 0.00 0.00 35 1010.5
20260508144510 65 122 1.0 7.0 0.00 0.00 0.00 35 1010.5
20260508144003 65 122 1.0 7.0 0.00 0.00 0.00 34 1010.5
20260508143504 64 121 1.0 6.0 0.00 0.00 0.00 36 1010.4
20260508142504 64 117 3.0 8.0 0.00 0.00 0.00 35 1010.4
20260508142007 63 115 1.0 8.0 0.00 0.00 0.00 37 1010.5
20260508141520 63 113 3.0 8.0 0.00 0.00 0.00 38 1010.5
20260508141008 62 109 3.0 7.0 0.00 0.00 0.00 38 1010.4
20260508140504 61 109 2.0 7.0 0.00 0.00 0.00 39 1010.3
20260508140015 61 110 3.0 7.0 0.00 0.00 0.00 39 1010.3
20260508135512 60 107 2.0 8.0 0.00 0.00 0.00 40 1010.3
20260508135008 59 99 1.0 8.0 0.00 0.00 0.00 42 1010.3
20260508134521 59 84 2.0 7.0 0.00 0.00 0.00 42 1010.3
20260508134003 58 57 1.0 4.0 0.00 0.00 0.00 45 1010.2
20260508133503 58 32 2.0 4.0 0.00 0.00 0.00 45 1010.2
20260508133008 57 67 1.0 4.0 0.00 0.00 0.00 46 1010.3
20260508132503 56 67 2.0 4.0 0.00 0.00 0.00 46 1010.1
20260508132003 56 56 1.0 3.0 0.00 0.00 0.00 48 1010.1
20260508131510 54 44 0.0 3.0 0.00 0.00 0.00 50 1010.0
20260508131010 54 43 1.0 3.0 0.00 0.00 0.00 51 1010.0
20260508130506 53 360 1.0 5.0 0.00 0.00 0.00 50 1009.8
20260508130019 53 43 1.0 5.0 0.00 0.00 0.00 50 1009.8
20260508125506 53 360 1.0 3.0 0.00 0.00 0.00 51 1009.7
20260508125009 52 360 1.0 3.0 0.00 0.00 0.00 51 1009.8
20260508124517 52 360 1.0 3.0 0.00 0.00 0.00 52 1010.0
20260508124007 52 360 1.0 2.0 0.00 0.00 0.00 53 1010.0
20260508123509 51 47 1.0 2.0 0.00 0.00 0.00 54 1010.0
20260508123007 51 37 0.0 3.0 0.00 0.00 0.00 55 1010.0
20260508122503 51 37 0.0 3.0 0.00 0.00 0.00 55 1010.1
20260508122004 51 23 1.0 3.0 0.00 0.00 0.00 55 1010.2
20260508121516 51 28 1.0 7.0 0.00 0.00 0.00 54 1010.0
20260508121003 51 19 3.0 9.0 0.00 0.00 0.00 54 1010.1
20260508120504 51 15 5.0 10.0 0.00 0.00 0.00 53 1010.1
20260508120017 51 16 6.0 10.0 0.00 0.00 0.00 54 1009.9
20260508115506 50 13 3.0 9.0 0.00 0.00 0.00 55 1009.9
20260508115004 50 14 6.0 11.0 0.00 0.00 0.00 54 1009.9
20260508114529 51 16 4.0 11.0 0.00 0.00 0.00 54 1009.8
20260508114006 51 338 3.0 6.0 0.00 0.00 0.00 54 1009.7
20260508113507 50 355 1.0 6.0 0.00 0.00 0.00 55 1009.7
20260508113030 50 350 1.0 6.0 0.00 0.00 0.00 56 1009.7
20260508112507 50 344 1.0 4.0 0.00 0.00 0.00 55 1009.6
20260508112003 50 355 1.0 4.0 0.00 0.00 0.00 54 1009.5
20260508111508 50 360 1.0 4.0 0.00 0.00 0.00 57 1009.4
20260508110504 50 15 1.0 4.0 0.00 0.00 0.00 56 1009.4
20260508110006 51 19 1.0 3.0 0.00 0.00 0.00 53 1009.4
20260508105503 51 19 1.0 3.0 0.00 0.00 0.00 53 1009.3
20260508105005 51 21 1.0 2.0 0.00 0.00 0.00 53 1009.1
20260508104515 51 22 0.0 2.0 0.00 0.00 0.00 53 1009.0
20260508104006 51 360 0.0 2.0 0.00 0.00 0.00 53 1008.9
20260508103506 52 26 0.0 3.0 0.00 0.00 0.00 53 1008.9
20260508103026 52 22 1.0 10.0 0.00 0.00 0.00 53 1008.9
20260508101532 52 360 1.0 8.0 0.00 0.00 0.00 55 1008.9
20260508100502 52 360 1.0 2.0 0.00 0.00 0.00 55 1008.7
20260508100008 53 27 1.0 2.0 0.00 0.00 0.00 54 1008.7
20260508095506 53 26 1.0 2.0 0.00 0.00 0.00 53 1008.7
20260508095004 53 26 1.0 2.0 0.00 0.00 0.00 53 1008.7
20260508094510 53 25 1.0 2.0 0.00 0.00 0.00 51 1008.9
20260508094003 53 25 1.0 2.0 0.00 0.00 0.00 51 1008.8
20260508093507 53 24 1.0 2.0 0.00 0.00 0.00 52 1008.9
20260508093018 53 22 1.0 3.0 0.00 0.00 0.00 52 1009.0
20260508092506 53 22 1.0 3.0 0.00 0.00 0.00 52 1009.1
20260508092008 53 21 1.0 4.0 0.00 0.00 0.00 52 1009.1
20260508091523 53 21 1.0 5.0 0.00 0.00 0.00 52 1009.1
20260508091015 53 21 2.0 5.0 0.00 0.00 0.00 52 1009.1
20260508090512 53 23 2.0 5.0 0.00 0.00 0.00 51 1009.0
20260508090032 53 28 2.0 5.0 0.00 0.00 0.00 52 1008.9
20260508084508 53 32 2.0 6.0 0.00 0.00 0.00 54 1008.9
20260508083014 53 30 1.0 4.0 0.00 0.00 0.00 54 1009.0
20260508082508 53 30 1.0 5.0 0.00 0.00 0.00 55 1009.1
20260508081519 53 36 3.0 11.0 0.00 0.00 0.00 57 1009.1
20260508080022 54 80 1.0 4.0 0.00 0.00 0.00 51 1009.4
20260508075512 55 81 1.0 4.0 0.00 0.00 0.00 50 1009.5
20260508075013 55 82 1.0 7.0 0.00 0.00 0.00 49 1009.7
20260508074527 56 82 1.0 10.0 0.00 0.00 0.00 45 1009.6
20260508073010 54 32 1.0 5.0 0.00 0.00 0.00 50 1010.1
20260508072007 55 30 2.0 9.0 0.00 0.00 0.00 53 1010.0
20260508071516 55 67 3.0 5.0 0.00 0.00 0.00 48 1010.1
20260508070021 56 96 0.0 2.0 0.00 0.00 0.00 44 1010.7
20260508064008 56 92 4.0 10.0 0.00 0.00 0.00 40 1009.7
20260508063508 56 87 4.0 8.0 0.00 0.00 0.00 42 1009.7
20260508063012 56 69 1.0 5.0 0.00 0.00 0.00 43 1010.0
20260508062507 56 61 1.0 6.0 0.00 0.00 0.00 43 1010.1
20260508062003 56 63 1.0 6.0 0.00 0.00 0.00 42 1010.1
20260508061508 56 56 2.0 4.0 0.00 0.00 0.00 43 1010.1
20260508061006 57 68 1.0 4.0 0.00 0.00 0.00 41 1010.0
20260508060504 58 71 1.0 10.0 0.00 0.00 0.00 38 1010.0
20260508060004 58 74 2.0 10.0 0.00 0.00 0.00 38 1009.9
20260508055503 58 89 5.0 10.0 0.00 0.00 0.00 37 1009.9
20260508055003 57 85 3.0 10.0 0.00 0.00 0.00 39 1009.8
20260508054505 57 88 3.0 10.0 0.00 0.00 0.00 40 1009.7
20260508054003 57 94 4.0 10.0 0.00 0.00 0.00 40 1009.6
20260508053503 55 92 6.0 9.0 0.00 0.00 0.00 45 1009.6
20260508053008 55 76 1.0 2.0 0.00 0.00 0.00 46 1009.9
20260508052003 54 77 1.0 2.0 0.00 0.00 0.00 48 1009.8
20260508051004 54 77 1.0 2.0 0.00 0.00 0.00 46 1009.7
20260508050504 54 77 1.0 2.0 0.00 0.00 0.00 47 1009.7
20260508050013 54 77 0.0 2.0 0.00 0.00 0.00 47 1009.7
20260508045506 54 77 1.0 2.0 0.00 0.00 0.00 47 1009.8
20260508045004 54 77 1.0 2.0 0.00 0.00 0.00 48 1009.8
20260508044504 54 77 0.0 2.0 0.00 0.00 0.00 47 1009.8
20260508044004 54 77 1.0 2.0 0.00 0.00 0.00 46 1009.8
20260508043505 54 77 0.0 2.0 0.00 0.00 0.00 47 1009.9
20260508043004 54 77 1.0 2.0 0.00 0.00 0.00 46 1009.8
20260508042505 55 78 1.0 3.0 0.00 0.00 0.00 45 1009.7
20260508042003 56 78 1.0 4.0 0.00 0.00 0.00 42 1009.7
20260508041004 57 78 2.0 5.0 0.00 0.00 0.00 40 1009.7
20260508040504 56 78 1.0 3.0 0.00 0.00 0.00 40 1009.8
20260508040005 56 69 1.0 3.0 0.00 0.00 0.00 41 1009.8
20260508035506 55 69 1.0 2.0 0.00 0.00 0.00 42 1009.9
20260508035002 55 62 1.0 2.0 0.00 0.00 0.00 43 1009.7
20260508034520 55 62 0.0 2.0 0.00 0.00 0.00 43 1009.8
20260508034003 55 62 0.0 2.0 0.00 0.00 0.00 43 1009.7
20260508033502 55 62 1.0 2.0 0.00 0.00 0.00 43 1009.7
20260508033011 55 62 0.0 2.0 0.00 0.00 0.00 43 1009.7
20260508032504 55 62 0.0 2.0 0.00 0.00 0.00 43 1009.7
20260508032002 55 62 0.0 2.0 0.00 0.00 0.00 42 1009.7
20260508031508 56 62 1.0 3.0 0.00 0.00 0.00 41 1009.6
20260508031002 56 62 1.0 3.0 0.00 0.00 0.00 40 1009.6
20260508030508 56 62 1.0 3.0 0.00 0.00 0.00 40 1009.5
20260508025502 56 60 1.0 2.0 0.00 0.00 0.00 40 1009.5
20260508025002 57 60 1.0 3.0 0.00 0.00 0.00 39 1009.4
20260508024513 58 60 1.0 3.0 0.00 0.00 0.00 38 1009.5
20260508024004 58 60 1.0 3.0 0.00 0.00 0.00 37 1009.4
20260508023503 58 60 1.0 3.0 0.00 0.00 0.00 36 1009.4
20260508023008 60 60 0.0 2.0 0.00 0.00 0.00 35 1009.3
20260508022504 61 60 0.0 3.0 0.00 0.00 0.00 34 1009.2
20260508022004 62 60 1.0 3.0 0.00 0.00 0.00 32 1009.1
20260508021507 61 59 1.0 4.0 0.00 0.00 0.00 33 1009.0
20260508021003 61 58 1.0 4.0 0.00 0.00 0.00 33 1009.1
20260508020503 61 56 3.0 4.0 0.00 0.00 0.00 33 1009.1
20260508020006 61 43 1.0 3.0 0.00 0.00 0.00 34 1009.0
20260508015503 62 38 1.0 4.0 0.00 0.00 0.00 35 1009.0
20260508015005 62 37 1.0 5.0 0.00 0.00 0.00 34 1009.0
20260508014510 62 37 2.0 6.0 0.00 0.00 0.00 34 1008.9
20260508014002 63 36 3.0 6.0 0.00 0.00 0.00 34 1008.9
20260508013501 64 36 3.0 5.0 0.00 0.00 0.00 32 1008.9
20260508013006 65 35 3.0 5.0 0.00 0.00 0.00 30 1008.8
20260508012504 65 21 1.0 5.0 0.00 0.00 0.00 30 1008.8
20260508012003 66 11 2.0 6.0 0.00 0.00 0.00 30 1008.8
20260508011509 67 36 3.0 6.0 0.00 0.00 0.00 29 1008.8
20260508011002 68 31 3.0 5.0 0.00 0.00 0.00 28 1008.7
20260508010503 68 21 1.0 6.0 0.00 0.00 0.00 26 1008.7
20260508010020 69 13 2.0 6.0 0.00 0.00 0.00 25 1008.6
20260508005503 69 19 2.0 5.0 0.00 0.00 0.00 25 1008.6
20260508005003 70 15 2.0 5.0 0.00 0.00 0.00 24 1008.6
20260508004518 70 5 1.0 5.0 0.00 0.00 0.00 23 1008.6
20260508004004 70 5 1.0 6.0 0.00 0.00 0.00 23 1008.6
20260508003506 70 360 2.0 6.0 0.00 0.00 0.00 23 1008.6
20260508003009 71 348 1.0 11.0 0.00 0.00 0.00 25 1008.4
20260508002502 71 331 2.0 11.0 0.00 0.00 0.00 21 1008.3
20260508002006 71 339 5.0 10.0 0.00 0.00 0.00 22 1008.3
20260508001510 72 360 1.0 11.0 0.00 0.00 0.00 21 1008.3
20260508001002 72 5 3.0 11.0 0.00 0.00 0.00 21 1008.3
20260508000504 72 344 4.0 12.0 0.00 0.00 0.00 22 1008.3
20260508000010 72 347 5.0 12.0 0.00 0.00 0.00 21 1008.5
20260507235506 73 5 3.0 12.0 0.00 0.00 0.00 21 1008.5
20260507234515 73 335 4.0 10.0 0.00 0.00 0.00 20 1008.6
20260507234005 73 336 3.0 11.0 0.00 0.00 0.00 19 1008.7
20260507233018 73 5 4.0 12.0 0.00 0.00 0.00 20 1008.6
20260507232506 74 329 7.0 12.0 0.00 0.00 0.00 19 1008.7
20260507232006 74 314 1.0 9.0 0.00 0.00 0.00 21 1008.7
20260507231509 73 296 2.0 9.0 0.00 0.00 0.00 20 1008.7
20260507231002 73 336 3.0 10.0 0.00 0.00 0.00 20 1008.7
20260507230504 74 309 4.0 10.0 0.00 0.00 0.00 20 1008.8
20260507230009 74 349 2.0 14.0 0.00 0.00 0.00 21 1008.8
20260507225508 74 319 8.0 14.0 0.00 0.00 0.00 19 1008.8
20260507225005 74 267 2.0 12.0 0.00 0.00 0.00 19 1008.7
20260507224514 74 288 6.0 14.0 0.00 0.00 0.00 21 1008.7
20260507222004 74 267 2.0 11.0 0.00 0.00 0.00 21 1008.6
20260507221005 74 280 5.0 14.0 0.00 0.00 0.00 21 1008.8
20260507220505 74 329 4.0 9.0 0.00 0.00 0.00 21 1008.8
20260507220014 73 288 0.0 14.0 0.00 0.00 0.00 21 1008.8
20260507215504 73 286 7.0 14.0 0.00 0.00 0.00 22 1008.9
20260507215002 73 280 9.0 14.0 0.00 0.00 0.00 21 1009.0
20260507214518 73 321 2.0 10.0 0.00 0.00 0.00 22 1009.1
20260507214007 73 293 3.0 15.0 0.00 0.00 0.00 21 1009.1
20260507213508 73 336 4.0 16.0 0.00 0.00 0.00 21 1009.2
20260507213012 73 281 9.0 16.0 0.00 0.00 0.00 22 1009.1
20260507211006 72 18 5.0 15.0 0.00 0.00 0.00 21 1009.3
20260507210505 73 302 8.0 15.0 0.00 0.00 0.00 22 1009.3
20260507210014 73 283 3.0 9.0 0.00 0.00 0.00 23 1009.3
20260507205507 72 238 2.0 9.0 0.00 0.00 0.00 23 1009.3
20260507205005 72 234 3.0 9.0 0.00 0.00 0.00 21 1009.4
20260507204514 72 232 4.0 10.0 0.00 0.00 0.00 23 1009.5
20260507204009 72 217 3.0 13.0 0.00 0.00 0.00 24 1009.5
20260507203509 72 281 8.0 13.0 0.00 0.00 0.00 22 1009.6
20260507203013 72 307 7.0 11.0 0.00 0.00 0.00 23 1009.7
20260507202503 72 250 3.0 11.0 0.00 0.00 0.00 25 1009.7
20260507202011 72 248 1.0 7.0 0.00 0.00 0.00 25 1009.8
20260507201516 71 249 2.0 14.0 0.00 0.00 0.00 23 1009.9
20260507201008 71 261 1.0 14.0 0.00 0.00 0.00 23 1009.9
20260507200505 71 313 6.0 14.0 0.00 0.00 0.00 24 1009.9